{"data":{"norad_id":53984,"epoch":"2026-09-20T14:09:16.537536Z","epoch_age_seconds":78882,"freshness":"FRESH","line1":"1 53984U 22125W   26263.58977474 -.00000148  00000+0  87935-5 0  9991","line2":"2 53984  53.1598  58.6714 0001273  85.5498 274.5639 15.08832769218887","mean_motion":15.08832769,"eccentricity":0.0001273,"inclination_deg":53.1598,"raan_deg":58.6714,"arg_perigee_deg":85.5498,"mean_anomaly_deg":274.5639,"bstar":8.7935e-6,"rev_number":21888,"period_min":95.43801205712,"perigee_km":538.88484233942,"apogee_km":540.64614031371,"semimajor_km":6917.9024913266,"source":"CELESTRAK","updated_at":"2026-09-21T09:00:33.043329Z"}}